Other Surface Observations
Issued by NWS

Home | Current Version | Previous Version | Text Only | Print | Product List | Glossary On
Versions: 1 2 3 4 5 6 7 8 9 10 11 12 13 14 15 16 17 18 19 20 21 22 23 24 25 26 27 28 29 30 31 32 33 34 35 36 37 38 39 40 41 42 43 44 45 46 47 48 49 50
000
SXUS52 KTAE 261406
OSOTAE
OSOTAE
North Florida/South Alabama/Southwest Georgia Weather Roundup
National Weather Service Tallahassee Florida
1000 AM EDT THU APR 26 2018

Note: "fair" indicates few or no clouds below 12,000 feet with no
significant weather and/or obstructions to visibility.

!FLZ017-115-028-034-025-261500
...North Florida...

CITY           SKY/WX    TMP DP  RH WIND       PRES   REMARKS
TALLAHASSEE    PTSUNNY   69  54  58 S8        29.91R
APALACHICOLA   FAIR      72  62  71 S9        29.91S
PERRY            N/A    N/A N/A N/A MISG        N/A
CROSS CITY     FAIR      71  59  67 SE5       29.92S
JACKSONVILLE   PTSUNNY   71  56  58 CALM      29.90S
$$

!FLZ112-006-005-002-011-261500
...Florida Panhandle...

CITY           SKY/WX    TMP DP  RH WIND       PRES   REMARKS
MARIANNA       FAIR      68  57  68 SW8       29.91R
BONIFAY        FAIR      64  60  87 S6        29.91S
PANAMA CITY NW FAIR      70  60  70 S9        29.91R
TYNDALL AFB    FAIR      71  61  71 S12       29.91S
TYND DRONE APT FAIR      71  62  73 S10       29.91S
DE FUNIAK SPR  FAIR      63  59  86 S5        29.91S
EGLIN AFB      PTSUNNY   71  64  79 SW12      29.88F
DESTIN         FAIR      73  64  73 VRB5      29.89F
HURLBURT       PTSUNNY   73  66  78 S10       29.88
CRESTVIEW      FAIR      67  60  78 VRB3      29.90F
PENSACOLA      PTSUNNY   72  64  76 W8        29.88S
$$

!ALZ063-066-261500
...South Alabama...

CITY           SKY/WX    TMP DP  RH WIND       PRES   REMARKS
DOTHAN         FAIR      67  56  67 S9        29.93S
OZARK CAIRNS   FAIR      63  57  81 S7        29.90S
FT RUCKER HELI PTSUNNY   62  58  86 S5        29.89S
RUCKER HELI 3  PTSUNNY   63  57  80 S3        29.89S
RUCKER HELI 2  FAIR      62  57  84 SW5       29.89S
FLORALA APT    FAIR      66  59  78 S8        29.91F
ANDALUSIA      FAIR      68  59  73 VRB3      29.89S
TROY           FAIR      63  59  87 SW6       29.90R
EUFALA         FAIR      64  59  83 CALM      29.90R
MOBILE         CLOUDY    66  61  84 W8        29.89S
$$

!GAZ120>161-261500
...Southwest and South Central Georgia...

CITY           SKY/WX    TMP DP  RH WIND       PRES   REMARKS
THOMASVILLE    FAIR      68  55  64 SW8       29.91R
BAINBRIDGE       N/A     72  61  68 S9        29.91R
MOODY AFB      FAIR      69  55  60 S7        29.88F
VALDOSTA       FAIR      68  56  65 S6        29.89F
MOULTRIE       FAIR      68  55  64 SW6       29.91R
BLAKELY        FAIR      64  59  82 S3        29.92R
ALBANY         FAIR      65  58  78 SW3       29.92R
TIFTON         FAIR      66  56  70 SW5       29.89S
FITZGERALD     FAIR      68  58  69 SW5       29.92R
CORDELE        FAIR      68  57  66 CALM      29.91S
AMERICUS       FAIR      64  46  52 W5        29.92R
HOMERVILLE     FAIR      68  55  64 S3        29.90F
$$

!GMZ750-755-770-775-261500
...Coastal and Buoy Obs...

STATION/POSITION TIME  TEMP    WIND        PRES    VSBY  WAVE
                       AIR SEA DIR/SP/G                  HT/PER
                 (UTC) (F)     (DEG/KT/KT) (MB)    (MI)  (FT/S)
KEATON BEACH     NOT AVBL
CEDAR KEY        1300   68      CALM  /  1 1013.5R
C TOWER          NOT AVBL
APALACHICOLA BUO NOT AVBL
PANAMA CITY BUOY 1350   72 74  240/  8/ 12 1013.2R         1/ 4
MOBILE BUOY      1350      73  250/ 14/ 16 1013.4S         2/ 4
ORANGE BCH AL BU 1350   71     240/ 12/ 14 1012.2F         1/ 3
$$




USA.gov is the U.S. government's official web portal to all federal, state and local government web resources and services.